TimeEDT,TemperatureF,Dew PointF,Humidity,Sea Level PressureIn,VisibilityMPH,Wind Direction,Wind SpeedMPH,Gust SpeedMPH,PrecipitationIn,Events,Conditions,WindDirDegrees,DateUTC
12:56 AM,75.0,69.1,82,29.85,8.0,Variable,3.5,-,N/A,,Clear,0,2013-08-31 04:56:00
1:56 AM,73.9,68.0,82,29.85,8.0,Variable,3.5,-,N/A,,Clear,0,2013-08-31 05:56:00
2:56 AM,73.0,68.0,84,29.84,8.0,Variable,3.5,-,N/A,,Partly Cloudy,0,2013-08-31 06:56:00
3:56 AM,73.0,68.0,84,29.84,8.0,WSW,6.9,-,N/A,,Clear,250,2013-08-31 07:56:00
4:56 AM,73.0,68.0,84,29.84,8.0,Variable,3.5,-,N/A,,Mostly Cloudy,0,2013-08-31 08:56:00
5:56 AM,72.0,68.0,87,29.84,8.0,Variable,5.8,-,N/A,,Overcast,0,2013-08-31 09:56:00
6:56 AM,72.0,68.0,87,29.84,6.0,SW,5.8,-,N/A,,Mostly Cloudy,220,2013-08-31 10:56:00
7:56 AM,73.0,68.0,84,29.84,6.0,Variable,5.8,-,N/A,,Haze,0,2013-08-31 11:56:00
8:56 AM,73.9,68.0,82,29.85,6.0,Variable,5.8,-,N/A,,Haze,0,2013-08-31 12:56:00
9:56 AM,75.9,69.1,79,29.85,6.0,SSW,5.8,-,N/A,,Haze,200,2013-08-31 13:56:00
10:45 AM,77.0,69.8,78,29.86,7.0,Variable,4.6,-,N/A,,Scattered Clouds,0,2013-08-31 14:45:00
10:52 AM,78.8,69.8,74,29.86,7.0,Variable,5.8,-,N/A,,Mostly Cloudy,0,2013-08-31 14:52:00
10:56 AM,79.0,70.0,74,29.84,7.0,Variable,6.9,-,N/A,,Mostly Cloudy,0,2013-08-31 14:56:00
11:12 AM,77.0,69.8,78,29.86,7.0,Variable,4.6,-,N/A,,Scattered Clouds,0,2013-08-31 15:12:00
11:51 AM,78.8,69.8,74,29.85,7.0,Variable,5.8,-,N/A,,Mostly Cloudy,0,2013-08-31 15:51:00
11:56 AM,79.0,70.0,74,29.83,7.0,South,4.6,-,N/A,,Scattered Clouds,180,2013-08-31 15:56:00
12:30 PM,80.6,69.8,70,29.85,7.0,SSW,5.8,-,N/A,,Mostly Cloudy,210,2013-08-31 16:30:00
12:40 PM,80.6,69.8,70,29.85,7.0,South,8.1,-,N/A,,Scattered Clouds,190,2013-08-31 16:40:00
12:56 PM,82.0,70.0,67,29.83,8.0,West,6.9,-,N/A,,Scattered Clouds,260,2013-08-31 16:56:00
1:56 PM,78.1,71.1,79,29.83,6.0,South,6.9,-,0.00,,Haze,170,2013-08-31 17:56:00
2:56 PM,80.1,71.1,74,29.81,6.0,SE,4.6,-,N/A,,Haze,140,2013-08-31 18:56:00
3:56 PM,82.0,72.0,71,29.79,7.0,SSE,5.8,-,N/A,,Mostly Cloudy,160,2013-08-31 19:56:00
4:56 PM,81.0,71.1,72,29.79,8.0,SSE,10.4,-,N/A,,Mostly Cloudy,160,2013-08-31 20:56:00
5:56 PM,81.0,72.0,74,29.79,9.0,South,4.6,-,N/A,,Mostly Cloudy,180,2013-08-31 21:56:00
6:56 PM,79.0,71.1,77,29.80,9.0,SSE,3.5,-,N/A,,Mostly Cloudy,150,2013-08-31 22:56:00
7:56 PM,77.0,71.1,82,29.80,9.0,SSE,4.6,-,N/A,,Mostly Cloudy,160,2013-08-31 23:56:00
8:56 PM,75.9,71.1,85,29.81,8.0,South,3.5,-,N/A,,Scattered Clouds,180,2013-09-01 00:56:00
9:56 PM,75.0,71.1,87,29.83,9.0,Calm,Calm,-,N/A,,Partly Cloudy,0,2013-09-01 01:56:00
10:56 PM,75.9,71.1,85,29.83,9.0,Calm,Calm,-,N/A,,Mostly Cloudy,0,2013-09-01 02:56:00
11:56 PM,73.9,70.0,87,29.83,9.0,Calm,Calm,-,N/A,,Scattered Clouds,0,2013-09-01 03:56:00